Retour au catalogue

KUIPER-00231

ActifCommunicationsLEO
NORAD 68580·PAYLOAD·🇺🇸 United States

Lancé Apr 4, 2026 depuis Cape Canaveral Space Force Station

Loading…

Prochains Passages (prochaines 24 heures)

TLE

FraisSource: CelesTrak SupGP

Époque: Sep 14, 2026, 23:01 UTC

1 68580C 26072H   26257.95914352  .00004621  00000+0  60491-3 0  2576
2 68580  51.8963 131.2557 0002132 102.2709 211.7751 14.79927254    19

Suivez KUIPER-00231 en temps réel avec AllMySat

Download on the App Store